Weather History for Lugano, Switzerland

Change the Weather History Date:

Saturday, March 15, 2014

  Actual Average Record
Temperature  
Mean Temperature 54 °F -  
Max Temperature 68 °F 55 °F - ()
Min Temperature 41 °F 42 °F - ()
Degree Days  
Heating Degree Days 10    
Growing Degree Days 4 (Base 50)    
Moisture  
Dew Point 38 °F    
Average Humidity 57    
Maximum Humidity 93    
Minimum Humidity 13    
Precipitation  
Precipitation 0.00 in 0.18 in - ()
Sea Level Pressure  
Sea Level Pressure 30.03 in    
Wind  
Wind Speed 3 mph ()    
Max Wind Speed 12 mph    
Max Gust Speed -    
Visibility 6.9 miles    
Events      
T = Trace of Precipitation, MM = Missing Value Source: Averaged Metar Reports

Daily Weather History Graph

Daily Weather History Graph

Search for Another Location

Airport:

Trip Planner

Search our weather history database for the weather conditions in past years. The results will help you decide how hot, cold, wet, or windy it might be!

Date:

Astronomy

Mar. 15, 2014 Rise Set
Actual Time 6:37 AM CET 6:29 PM CET
Civil Twilight 6:07 AM CET 6:59 PM CET
Nautical Twilight 5:33 AM CET 7:34 PM CET
Astronomical Twilight 4:57 AM CET 8:10 PM CET
Moon 5:32 PM CET (3/15) 5:43 AM CET (3/15)
Length of Visible Light 12h 51m
Length of Day
11h 52m
Waxing Gibbous, 98% of the Moon is Illuminated
Mar 15
Waxing Gibbous
Mar 16
Full
Mar 24
Last Quarter
Mar 30
New
Apr 7
First Quarter

Hourly Weather History & Observations

Time (CET) Temp. Windchill Dew Point Humidity Pressure Visibility Wind Dir Wind Speed Gust Speed Precip Events Conditions
12:00 AM 50 °F - 42 °F 67% 30.23 in - WNW 1.2 mph - -  
12:20 AM 44.6 °F - 39.2 °F 81% 30.21 in - Variable 2.3 mph - N/A   Mist
12:50 AM 44.6 °F - 41.0 °F 87% 30.21 in 2.8 mi Variable 2.3 mph - N/A   Mist
1:00 AM 49 °F - 40 °F 63% 30.22 in 16 mi North 2.3 mph - -  
1:20 AM 42.8 °F - 39.2 °F 87% 30.21 in - Variable 1.2 mph - N/A   Mist
1:50 AM 42.8 °F - 39.2 °F 87% 30.18 in - Variable 1.2 mph - N/A   Mist
2:00 AM 48 °F - 40 °F 65% 30.21 in - Calm Calm - -  
2:20 AM 41.0 °F 38.0 °F 37.4 °F 87% 30.18 in - North 4.6 mph - N/A   Mist
2:50 AM 41.0 °F - 39.2 °F 93% 30.18 in - Variable 1.2 mph - N/A   Mist
3:00 AM 47 °F - 42 °F 75% 30.20 in - ENE 1.2 mph - -  
3:20 AM 41.0 °F 38.0 °F 39.2 °F 93% 30.15 in - North 4.6 mph - N/A   Mist
3:50 AM 41.0 °F - 37.4 °F 87% 30.15 in - Variable 1.2 mph - N/A   Mist
4:00 AM 47 °F - 39 °F 64% 30.17 in 12 mi NNE 1.2 mph - -  
4:20 AM 41.0 °F 39.0 °F 39.2 °F 93% 30.15 in - Variable 3.5 mph - N/A   Mist
4:50 AM 41.0 °F - 37.4 °F 87% 30.15 in - Variable 2.3 mph - N/A   Mist
5:00 AM 46 °F - 39 °F 67% 30.17 in - WNW 1.2 mph - -  
5:20 AM 39.2 °F - 37.4 °F 93% 30.15 in - Variable 2.3 mph - N/A   Mist
5:50 AM 39.2 °F - 37.4 °F 93% 30.12 in - Variable 2.3 mph - N/A   Mist
6:00 AM 46 °F - 40 °F 71% 30.16 in - NE 1.2 mph - -  
6:20 AM 39.2 °F 35.0 °F 37.4 °F 93% 30.12 in 5.0 mi North 5.8 mph - N/A   Partly Cloudy
6:50 AM 39.2 °F 37.0 °F 37.4 °F 93% 30.12 in 5.0 mi North 3.5 mph - N/A   Partly Cloudy
7:00 AM 46 °F - 38 °F 63% 30.14 in 12 mi North 2.3 mph - -  
7:20 AM 41.0 °F 39.0 °F 37.4 °F 87% 30.12 in 5.0 mi North 3.5 mph - N/A   Mostly Cloudy
7:50 AM 42.8 °F - 39.2 °F 87% 30.12 in 5.0 mi Variable 1.2 mph - N/A   Unknown
8:00 AM 47 °F - 38 °F 63% 30.14 in - NNE 1.2 mph - -  
8:20 AM 42.8 °F - 39.2 °F 87% 30.12 in 5.6 mi Variable 1.2 mph - N/A   Unknown
8:50 AM 44.6 °F - 41.0 °F 87% 30.12 in 5.0 mi Variable 2.3 mph - N/A   Unknown
9:00 AM 49 °F - 40 °F 62% 30.13 in - NW 1.2 mph - -  
9:20 AM 48.2 °F - 41.0 °F 76% 30.09 in 5.0 mi Variable 1.2 mph - N/A   Unknown
9:50 AM 51.8 °F - 41.0 °F 67% 30.09 in 5.0 mi Variable 2.3 mph - N/A   Unknown
10:00 AM 51 °F - 41 °F 59% 30.12 in - ESE 5.8 mph - -  
10:20 AM 55.4 °F - 37.4 °F 51% 30.06 in - Variable 1.2 mph - N/A   Clear
10:50 AM 55.4 °F - 39.2 °F 54% 30.06 in - Variable 2.3 mph - N/A   Clear
11:00 AM 50 °F - 43 °F 69% 30.09 in - West 1.2 mph - -  
11:20 AM 59.0 °F - 39.2 °F 48% 30.06 in - Variable 2.3 mph - N/A   Clear
11:50 AM 59.0 °F - 37.4 °F 45% 30.04 in - Variable 1.2 mph - N/A   Clear
12:00 PM 51 °F - 43 °F 65% 30.06 in - SSW 2.3 mph - -  
12:20 PM 60.8 °F - 39.2 °F 45% 30.04 in - Variable 1.2 mph - N/A   Clear
12:50 PM 60.8 °F - 39.2 °F 45% 30.01 in - Variable 2.3 mph - N/A   Clear
1:00 PM 54 °F - 41 °F 50% 30.02 in 12 mi South 2.3 mph - -   Overcast
1:20 PM 62.6 °F - 39.2 °F 42% 29.98 in - Variable 1.2 mph - N/A   Clear
1:50 PM 60.8 °F - 37.4 °F 42% 29.98 in - Variable 2.3 mph - N/A   Clear
2:00 PM 58 °F - 40 °F 41% 29.96 in - WSW 1.2 mph - -  
2:20 PM 62.6 °F - 35.6 °F 37% 29.95 in 6.2 mi Variable 2.3 mph - N/A   Mostly Cloudy
2:50 PM 64.4 °F - 35.6 °F 34% 29.92 in 6.2 mi Variable 1.2 mph - N/A   Mostly Cloudy
3:00 PM 57 °F - 42 °F 45% 29.92 in - WNW 1.2 mph - -  
3:20 PM 66.2 °F - 37.4 °F 35% 29.92 in 6.2 mi South 3.5 mph - N/A   Scattered Clouds
3:50 PM 66.2 °F - 35.6 °F 32% 29.89 in 6.2 mi Variable 2.3 mph - N/A   Scattered Clouds
4:00 PM 59 °F - 39 °F 36% 29.90 in - SSW 2.3 mph - -  
4:20 PM 68.0 °F - 35.6 °F 30% 29.89 in 6.2 mi Variable 1.2 mph - N/A   Scattered Clouds
4:50 PM 66.2 °F - 41.0 °F 40% 29.89 in 6.2 mi Variable 1.2 mph - N/A   Scattered Clouds
5:00 PM 62 °F - 38 °F 30% 29.88 in - North 3.5 mph - -  
5:20 PM 66.2 °F - 44.6 °F 46% 29.89 in 6.2 mi Variable 1.2 mph - N/A   Scattered Clouds
5:50 PM 62.6 °F - 41.0 °F 45% 29.89 in 6.2 mi North 3.5 mph - N/A   Scattered Clouds
6:00 PM 68 °F - 29 °F 13% 29.86 in - North 10.4 mph - -  
6:20 PM 60.8 °F - 37.4 °F 42% 29.86 in 6.2 mi North 11.5 mph - N/A   Scattered Clouds
6:50 PM 60.8 °F - 37.4 °F 42% 29.89 in 6.2 mi NNE 8.1 mph - N/A   Partly Cloudy
7:00 PM 65 °F - 32 °F 18% 29.87 in 12 mi North 8.1 mph - -   Scattered Clouds
7:20 PM 59.0 °F - 35.6 °F 42% 29.89 in 6.2 mi North 10.4 mph - N/A   Partly Cloudy
7:50 PM 59.0 °F - 35.6 °F 42% 29.89 in 6.2 mi North 10.4 mph - N/A   Partly Cloudy
8:00 PM 66 °F - 31 °F 17% 29.89 in - North 10.4 mph - -  
8:20 PM 55.4 °F - 37.4 °F 51% 29.92 in 6.2 mi North 10.4 mph - N/A   Partly Cloudy
8:50 PM 59.0 °F - 35.6 °F 42% 29.92 in 6.2 mi North 9.2 mph - N/A   Partly Cloudy
9:00 PM 65 °F - 32 °F 18% 29.91 in - North 9.2 mph - -  
9:20 PM 57.2 °F - 35.6 °F 44% 29.92 in - North 8.1 mph - N/A   Clear
9:50 PM 55.4 °F - 37.4 °F 51% 29.92 in - North 9.2 mph - N/A   Clear
10:00 PM 64 °F - 32 °F 19% 29.93 in - NE 9.2 mph - -  
10:20 PM 57.2 °F - 35.6 °F 44% 29.92 in - North 6.9 mph - N/A   Clear
10:50 PM 57.2 °F - 35.6 °F 44% 29.95 in - NNE 6.9 mph - N/A   Clear
11:00 PM 62 °F - 32 °F 21% 29.93 in - ENE 11.5 mph - -  
11:20 PM 59.0 °F - 33.8 °F 39% 29.92 in - NNE 4.6 mph - N/A   Clear
11:50 PM 53.6 °F - 35.6 °F 51% 29.92 in - Variable 1.2 mph - N/A   Clear